DECAYED
Showing default

HITCH HIKER 1, 614 (Decayed)

Orbit data source: Space-Track

HITCH HIKER 1, 614 was an American payload satellite in LEO that was launched on Thu, 27 Jun 1963 UTC via a THOR SLV-2A AGENA D launch vehicle from the Air Force Western Test Range (AFWTR). Payloads include a variety of satellites, spacecraft, and rockets equipped with specific instruments for various scientific and technological missions. These include communications satellites like Starlink; space stations such as the ISS; scientific satellites like the Hubble; Earth observation satellites from companies like Planet Labs, Umbra, and HawkEye 360; GPS; miniature CubeSats for education and research; and military/defense satellites.

Not visible in the next 10 days
HITCH HIKER 1 details
Identifier
614, 1963-025B
Orbit
Decayed
Last TLE update5 months ago
Origin
Flag of USNRO/SAFSP (US)
ManufacturerLMSC
MissionDecayed Civil Science
Bus & MotorP-11, P-11 MOTOR
Mass126 kg wet, 95 kg dry
Launch date (UTC)
1963-06-27 (62 years ago)
Launch vehicle
THOR SLV-2A AGENA D
Launch site
Air Force Western Test Range (AFWTR)
Object type
Payload
Rocket body
Debris
Shape & HBRBox, 0.9 m
Radar Cross Section0.675 m², Medium (>0.1 m² and < 1m²)

Expand to show TLE details & history

TLE from 5 months ago
0 HITCH HIKER 1
1   614U 63025B   24224.44464499  .02601302 -11065-5  61857-3 0  9998
2   614  81.9161 358.3908 0048667 257.0684 102.5168 16.26051566823406
Epoch: 2024-08-11T10:40Z
Definitive object data (Epoch: 2024-08-11T10:40:17.327Z)
Latitude-0.00003°
Longitude-122.07166°
Altitude213.475 km
Speed7.774 km/s
True Right ascension23h 53m 33s
True Declination0° 00' 00"
Sunlit
Object was in full shadow at TLE epoch
Visualization observer readout
Observer readout values are unavailable because the object's trajectory could not be propagated. This is usually caused when the trajectory data is faulty or the object's orbit has decayed.
Visualization observer readout
Observer readout values are unavailable because the object's trajectory could not be propagated. This is usually caused when the trajectory data is faulty or the object's orbit has decayed.
Orbital elements
Apogee altitude232.044 km
Perigee altitude168.016 km
Semi-major axis6,578.167 km
Eccentricity0.0048667
Inclination81.9161°
RAAN358.3908°
Arg. of periapsis257.0684°
True anomaly103.0605°
Mean anomaly102.5168°
Eccentric anomaly102.78872°
Mean motion4.06805 °/min
BSTAR0.00061857
Orbital period88.49 mins
Loading maneuver chart data...
Loading historical data...
Loading historical data...
Loading historical data...
Loading historical data...
Loading historical data...
Loading historical data...
Loading historical data...
Other satellites on launch #25 in the year 1963 (1963-06-27 UTC)

HITCH HIKER 1 Visibility forecast

Observer location: undefined°, undefined

This satellite is decayed
Span
Click to sort rows by Start time (UTC) header in descending order
Start Az.
Max El. time (UTC)
Max El. Az.
Max El.
End time (UTC)
End Az.
|